Year,Month,Day,Hour,Minute,Value (Times are PST for temperature in C)
2022,07,25,00,00,17.50
2022,07,25,00,01,17.50
2022,07,25,00,02,17.50
2022,07,25,00,03,17.50
2022,07,25,00,04,17.50
2022,07,25,00,05,17.40
2022,07,25,00,06,17.40
2022,07,25,00,07,17.40
2022,07,25,00,08,17.40
2022,07,25,00,09,17.40
2022,07,25,00,10,17.40
2022,07,25,00,11,17.40
2022,07,25,00,12,17.40
2022,07,25,00,13,17.40
2022,07,25,00,14,17.40
2022,07,25,00,15,17.40
2022,07,25,00,16,17.40
2022,07,25,00,17,17.40
2022,07,25,00,18,17.30
2022,07,25,00,19,17.30
2022,07,25,00,20,17.30
2022,07,25,00,21,17.30
2022,07,25,00,22,17.30
2022,07,25,00,23,17.30
2022,07,25,00,24,17.30
2022,07,25,00,25,17.20
2022,07,25,00,26,17.20
2022,07,25,00,27,17.20
2022,07,25,00,28,17.20
2022,07,25,00,29,17.20
2022,07,25,00,30,17.20
2022,07,25,00,31,17.20
2022,07,25,00,32,17.20
2022,07,25,00,33,17.20
2022,07,25,00,34,17.20
2022,07,25,00,35,17.10
2022,07,25,00,36,17.20
2022,07,25,00,37,17.10
2022,07,25,00,38,17.10
2022,07,25,00,39,17.10
2022,07,25,00,40,17.10
2022,07,25,00,41,17.10
2022,07,25,00,42,17.00
2022,07,25,00,43,17.00
2022,07,25,00,44,17.00
2022,07,25,00,45,17.00
2022,07,25,00,46,17.00
2022,07,25,00,47,16.90
2022,07,25,00,48,16.90
2022,07,25,00,49,16.90
2022,07,25,00,50,16.90
2022,07,25,00,51,16.90
2022,07,25,00,52,16.90
2022,07,25,00,53,16.90
2022,07,25,00,54,16.90
2022,07,25,00,55,16.90
2022,07,25,00,56,16.90
2022,07,25,00,57,16.90
2022,07,25,00,58,17.00
2022,07,25,00,59,17.00
2022,07,25,01,00,17.00
2022,07,25,01,01,17.00
2022,07,25,01,02,17.00
2022,07,25,01,03,17.00
2022,07,25,01,04,17.00
2022,07,25,01,05,17.10
2022,07,25,01,06,17.10
2022,07,25,01,07,17.10
2022,07,25,01,08,17.10
2022,07,25,01,09,17.10
2022,07,25,01,10,17.10
2022,07,25,01,11,17.00
2022,07,25,01,12,17.00
2022,07,25,01,13,17.00
2022,07,25,01,14,17.00
2022,07,25,01,15,17.00
2022,07,25,01,16,16.90
2022,07,25,01,17,16.90
2022,07,25,01,18,16.90
2022,07,25,01,19,16.90
2022,07,25,01,20,16.90
2022,07,25,01,21,17.00
2022,07,25,01,22,17.00
2022,07,25,01,23,17.00
2022,07,25,01,24,17.00
2022,07,25,01,25,17.00
2022,07,25,01,26,16.90
2022,07,25,01,27,16.90
2022,07,25,01,28,16.90
2022,07,25,01,29,16.90
2022,07,25,01,30,16.90
2022,07,25,01,31,16.90
2022,07,25,01,32,16.80
2022,07,25,01,33,16.80
2022,07,25,01,34,16.80
2022,07,25,01,35,16.80
2022,07,25,01,36,16.90
2022,07,25,01,37,16.90
2022,07,25,01,38,16.80
2022,07,25,01,39,16.80
2022,07,25,01,40,16.80
2022,07,25,01,41,16.80
2022,07,25,01,42,16.80
2022,07,25,01,43,16.80
2022,07,25,01,44,16.80
2022,07,25,01,45,16.80
2022,07,25,01,46,16.80
2022,07,25,01,47,16.80
2022,07,25,01,48,16.80
2022,07,25,01,49,16.80
2022,07,25,01,50,16.70
2022,07,25,01,51,16.70
2022,07,25,01,52,16.70
2022,07,25,01,53,16.70
2022,07,25,01,54,16.70
2022,07,25,01,55,16.70
2022,07,25,01,56,16.70
2022,07,25,01,57,16.70
2022,07,25,01,58,16.70
2022,07,25,01,59,16.70
2022,07,25,02,00,16.70
2022,07,25,02,01,16.70
2022,07,25,02,02,16.70
2022,07,25,02,03,16.70
2022,07,25,02,04,16.70
2022,07,25,02,05,16.70
2022,07,25,02,06,16.70
2022,07,25,02,07,16.70
2022,07,25,02,08,16.70
2022,07,25,02,09,16.60
2022,07,25,02,10,16.60
2022,07,25,02,11,16.60
2022,07,25,02,12,16.60
2022,07,25,02,13,16.60
2022,07,25,02,14,16.60
2022,07,25,02,15,16.50
2022,07,25,02,16,16.50
2022,07,25,02,17,16.50
2022,07,25,02,18,16.40
2022,07,25,02,19,16.40
2022,07,25,02,20,16.40
2022,07,25,02,21,16.40
2022,07,25,02,22,16.30
2022,07,25,02,23,16.30
2022,07,25,02,24,16.30
2022,07,25,02,25,16.30
2022,07,25,02,26,16.30
2022,07,25,02,27,16.30
2022,07,25,02,28,16.30
2022,07,25,02,29,16.30
2022,07,25,02,30,16.20
2022,07,25,02,31,16.20
2022,07,25,02,32,16.20
2022,07,25,02,33,16.20
2022,07,25,02,34,16.20
2022,07,25,02,35,16.20
2022,07,25,02,36,16.20
2022,07,25,02,37,16.20
2022,07,25,02,38,16.20
2022,07,25,02,39,16.20
2022,07,25,02,40,16.20
2022,07,25,02,41,16.20
2022,07,25,02,42,16.20
2022,07,25,02,43,16.20
2022,07,25,02,44,16.20
2022,07,25,02,45,16.20
2022,07,25,02,46,16.20
2022,07,25,02,47,16.20
2022,07,25,02,48,16.20
2022,07,25,02,49,16.20
2022,07,25,02,50,16.20
2022,07,25,02,51,16.20
2022,07,25,02,52,16.20
2022,07,25,02,53,16.20
2022,07,25,02,54,16.10
2022,07,25,02,55,16.10
2022,07,25,02,56,16.10
2022,07,25,02,57,16.10
2022,07,25,02,58,16.10
2022,07,25,02,59,16.10
2022,07,25,03,00,16.10
2022,07,25,03,01,16.10
2022,07,25,03,02,16.10
2022,07,25,03,03,16.10
2022,07,25,03,04,16.00
2022,07,25,03,05,16.00
2022,07,25,03,06,16.00
2022,07,25,03,07,16.00
2022,07,25,03,08,16.00
2022,07,25,03,09,16.00
2022,07,25,03,10,16.00
2022,07,25,03,11,15.90
2022,07,25,03,12,15.90
2022,07,25,03,13,15.90
2022,07,25,03,14,15.90
2022,07,25,03,15,15.90
2022,07,25,03,16,15.90
2022,07,25,03,17,15.90
2022,07,25,03,18,15.90
2022,07,25,03,19,15.90
2022,07,25,03,20,15.90
2022,07,25,03,21,15.90
2022,07,25,03,22,15.90
2022,07,25,03,23,15.90
2022,07,25,03,24,15.90
2022,07,25,03,25,16.00
2022,07,25,03,26,16.00
2022,07,25,03,27,16.00
2022,07,25,03,28,16.00
2022,07,25,03,29,16.00
2022,07,25,03,30,16.00
2022,07,25,03,31,16.00
2022,07,25,03,32,16.00
2022,07,25,03,33,16.10
2022,07,25,03,34,16.10
2022,07,25,03,35,16.10
2022,07,25,03,36,16.10
2022,07,25,03,37,16.10
2022,07,25,03,38,16.10
2022,07,25,03,39,16.10
2022,07,25,03,40,16.10
2022,07,25,03,41,16.00
2022,07,25,03,42,16.00
2022,07,25,03,43,16.00
2022,07,25,03,44,16.00
2022,07,25,03,45,16.00
2022,07,25,03,46,16.00
2022,07,25,03,47,16.00
2022,07,25,03,48,16.00
2022,07,25,03,49,16.00
2022,07,25,03,50,16.00
2022,07,25,03,51,16.00
2022,07,25,03,52,16.00
2022,07,25,03,53,16.00
2022,07,25,03,54,16.00
2022,07,25,03,55,16.10
2022,07,25,03,56,16.10
2022,07,25,03,57,16.10
2022,07,25,03,58,16.10
2022,07,25,03,59,16.10
2022,07,25,04,00,16.20
2022,07,25,04,01,16.20
2022,07,25,04,02,16.20
2022,07,25,04,03,16.20
2022,07,25,04,04,16.20
2022,07,25,04,08,16.30
2022,07,25,04,09,16.30
2022,07,25,04,10,16.30
2022,07,25,04,11,16.30
2022,07,25,04,12,16.30
2022,07,25,04,13,16.30
2022,07,25,04,14,16.30
2022,07,25,04,15,16.40
2022,07,25,04,16,16.40
2022,07,25,04,17,16.40
2022,07,25,04,18,16.50
2022,07,25,04,19,16.50
2022,07,25,04,20,16.50
2022,07,25,04,21,16.40
2022,07,25,04,22,16.40
2022,07,25,04,23,16.40
2022,07,25,04,24,16.40
2022,07,25,04,25,16.40
2022,07,25,04,26,16.40
2022,07,25,04,27,16.40
2022,07,25,04,28,16.40
2022,07,25,04,29,16.40
2022,07,25,04,30,16.40
2022,07,25,04,31,16.40
2022,07,25,04,32,16.40
2022,07,25,04,33,16.30
2022,07,25,04,34,16.30
2022,07,25,04,35,16.30
2022,07,25,04,36,16.30
2022,07,25,04,37,16.30
2022,07,25,04,38,16.30
2022,07,25,04,39,16.30
2022,07,25,04,40,16.30
2022,07,25,04,41,16.30
2022,07,25,04,42,16.30
2022,07,25,04,43,16.30
2022,07,25,04,44,16.30
2022,07,25,04,45,16.30
2022,07,25,04,46,16.30
2022,07,25,04,47,16.30
2022,07,25,04,48,16.20
2022,07,25,04,49,16.20
2022,07,25,04,50,16.20
2022,07,25,04,51,16.20
2022,07,25,04,52,16.20
2022,07,25,04,53,16.20
2022,07,25,04,54,16.20
2022,07,25,04,55,16.20
2022,07,25,04,56,16.20
2022,07,25,04,57,16.10
2022,07,25,04,58,16.10
2022,07,25,04,59,16.10
2022,07,25,05,00,16.10
2022,07,25,05,01,16.00
2022,07,25,05,02,16.00
2022,07,25,05,03,16.00
2022,07,25,05,04,16.00
2022,07,25,05,05,16.00
2022,07,25,05,06,16.00
2022,07,25,05,07,15.90
2022,07,25,05,08,15.90
2022,07,25,05,09,15.90
2022,07,25,05,10,15.90
2022,07,25,05,11,15.90
2022,07,25,05,12,15.90
2022,07,25,05,13,15.90
2022,07,25,05,14,15.90
2022,07,25,05,15,16.00
2022,07,25,05,16,16.00
2022,07,25,05,17,16.00
2022,07,25,05,18,16.00
2022,07,25,05,19,16.00
2022,07,25,05,20,16.00
2022,07,25,05,21,16.00
2022,07,25,05,22,16.00
2022,07,25,05,23,16.00
2022,07,25,05,24,15.90
2022,07,25,05,25,15.90
2022,07,25,05,26,15.90
2022,07,25,05,27,15.90
2022,07,25,05,28,15.90
2022,07,25,05,29,15.90
2022,07,25,05,30,15.90
2022,07,25,05,31,15.90
2022,07,25,05,32,15.80
2022,07,25,05,33,15.80
2022,07,25,05,34,15.80
2022,07,25,05,35,15.80
2022,07,25,05,36,15.80
2022,07,25,05,37,15.80
2022,07,25,05,38,15.80
2022,07,25,05,39,15.80
2022,07,25,05,40,15.80
2022,07,25,05,41,15.80
2022,07,25,05,42,15.80
2022,07,25,05,43,15.80
2022,07,25,05,44,15.80
2022,07,25,05,45,15.80
2022,07,25,05,46,15.80
2022,07,25,05,47,15.80
2022,07,25,05,48,15.80
2022,07,25,05,49,15.80
2022,07,25,05,50,15.80
2022,07,25,05,51,15.80
2022,07,25,05,52,15.80
2022,07,25,05,53,15.80
2022,07,25,05,54,15.80
2022,07,25,05,55,15.80
2022,07,25,05,56,15.80
2022,07,25,05,57,15.80
2022,07,25,05,58,15.80
2022,07,25,05,59,15.80
2022,07,25,06,00,15.80
2022,07,25,06,01,15.80
2022,07,25,06,02,15.80
2022,07,25,06,03,15.80
2022,07,25,06,04,15.80
2022,07,25,06,05,15.80
2022,07,25,06,06,15.80
2022,07,25,06,07,15.80
2022,07,25,06,08,15.80
2022,07,25,06,09,15.80
2022,07,25,06,10,15.80
2022,07,25,06,11,15.80
2022,07,25,06,12,15.80
2022,07,25,06,13,15.90
2022,07,25,06,14,15.90
2022,07,25,06,15,15.90
2022,07,25,06,16,15.90
2022,07,25,06,17,15.80
2022,07,25,06,18,15.80
2022,07,25,06,19,15.80
2022,07,25,06,20,15.80
2022,07,25,06,21,15.80
2022,07,25,06,22,15.80
2022,07,25,06,23,15.80
2022,07,25,06,24,15.80
2022,07,25,06,25,15.80
2022,07,25,06,26,15.80
2022,07,25,06,27,15.80
2022,07,25,06,28,15.80
2022,07,25,06,29,15.80
2022,07,25,06,30,15.70
2022,07,25,06,31,15.70
2022,07,25,06,32,15.80
2022,07,25,06,33,15.80
2022,07,25,06,34,15.90
2022,07,25,06,35,15.90
2022,07,25,06,36,15.90
2022,07,25,06,37,15.90
2022,07,25,06,38,15.90
2022,07,25,06,39,15.90
2022,07,25,06,40,16.00
2022,07,25,06,41,16.00
2022,07,25,06,42,16.00
2022,07,25,06,43,16.00
2022,07,25,06,44,16.00
2022,07,25,06,45,16.00
2022,07,25,06,46,16.00
2022,07,25,06,47,16.10
2022,07,25,06,48,16.10
2022,07,25,06,49,16.20
2022,07,25,06,50,16.20
2022,07,25,06,51,16.30
2022,07,25,06,52,16.40
2022,07,25,06,53,16.40
2022,07,25,06,54,16.50
2022,07,25,06,55,16.60
2022,07,25,06,56,16.60
2022,07,25,06,57,16.70
2022,07,25,06,58,16.70
2022,07,25,06,59,16.80
2022,07,25,07,00,16.80
2022,07,25,07,01,16.80
2022,07,25,07,02,16.90
2022,07,25,07,03,16.90
2022,07,25,07,04,16.90
2022,07,25,07,05,17.00
2022,07,25,07,06,17.00
2022,07,25,07,07,17.10
2022,07,25,07,08,17.20
2022,07,25,07,09,17.30
2022,07,25,07,10,17.30
2022,07,25,07,11,17.40
2022,07,25,07,12,17.50
2022,07,25,07,13,17.60
2022,07,25,07,14,17.70
2022,07,25,07,15,17.70
2022,07,25,07,16,17.80
2022,07,25,07,17,17.80
2022,07,25,07,18,17.90
2022,07,25,07,19,18.00
2022,07,25,07,20,18.00
2022,07,25,07,21,18.10
2022,07,25,07,22,18.20
2022,07,25,07,23,18.20
2022,07,25,07,24,18.30
2022,07,25,07,25,18.30
2022,07,25,07,26,18.40
2022,07,25,07,27,18.50
2022,07,25,07,28,18.60
2022,07,25,07,29,18.60
2022,07,25,07,30,18.70
2022,07,25,07,31,18.80
2022,07,25,07,32,18.80
2022,07,25,07,33,18.90
2022,07,25,07,34,19.00
2022,07,25,07,35,19.10
2022,07,25,07,36,19.20
2022,07,25,07,37,19.40
2022,07,25,07,38,19.50
2022,07,25,07,39,19.60
2022,07,25,07,40,19.70
2022,07,25,07,41,19.80
2022,07,25,07,42,20.00
2022,07,25,07,43,20.10
2022,07,25,07,44,20.20
2022,07,25,07,45,20.30
2022,07,25,07,46,20.40
2022,07,25,07,47,20.50
2022,07,25,07,48,20.50
2022,07,25,07,49,20.70
2022,07,25,07,50,20.70
2022,07,25,07,51,20.80
2022,07,25,07,52,20.80
2022,07,25,07,53,20.90
2022,07,25,07,54,21.00
2022,07,25,07,55,21.00
2022,07,25,07,56,21.10
2022,07,25,07,57,21.20
2022,07,25,07,58,21.20
2022,07,25,07,59,21.20
2022,07,25,08,00,21.20
2022,07,25,08,01,21.20
2022,07,25,08,02,21.20
2022,07,25,08,03,21.20
2022,07,25,08,04,21.20
2022,07,25,08,05,21.30
2022,07,25,08,06,21.30
2022,07,25,08,07,21.30
2022,07,25,08,08,21.30
2022,07,25,08,09,21.30
2022,07,25,08,10,21.30
2022,07,25,08,11,21.30
2022,07,25,08,12,21.30
2022,07,25,08,13,21.40
2022,07,25,08,14,21.40
2022,07,25,08,15,21.40
2022,07,25,08,16,21.40
2022,07,25,08,17,21.40
2022,07,25,08,18,21.50
2022,07,25,08,19,21.50
2022,07,25,08,20,21.50
2022,07,25,08,21,21.60
2022,07,25,08,22,21.60
2022,07,25,08,23,21.60
2022,07,25,08,24,21.60
2022,07,25,08,25,21.60
2022,07,25,08,26,21.60
2022,07,25,08,27,21.60
2022,07,25,08,28,21.70
2022,07,25,08,29,21.70
2022,07,25,08,30,21.70
2022,07,25,08,31,21.70
2022,07,25,08,32,21.70
2022,07,25,08,33,21.80
2022,07,25,08,34,21.80
2022,07,25,08,35,21.80
2022,07,25,08,36,21.90
2022,07,25,08,37,21.90
2022,07,25,08,38,21.90
2022,07,25,08,39,21.90
2022,07,25,08,40,21.90
2022,07,25,08,41,21.90
2022,07,25,08,42,21.80
2022,07,25,08,43,21.80
2022,07,25,08,44,21.90
2022,07,25,08,45,21.90
2022,07,25,08,46,21.90
2022,07,25,08,47,22.00
2022,07,25,08,48,22.10
2022,07,25,08,49,22.10
2022,07,25,08,50,22.20
2022,07,25,08,51,22.20
2022,07,25,08,52,22.20
2022,07,25,08,53,22.30
2022,07,25,08,54,22.30
2022,07,25,08,55,22.40
2022,07,25,08,56,22.40
2022,07,25,08,57,22.50
2022,07,25,08,58,22.50
2022,07,25,08,59,22.60
2022,07,25,09,00,22.70
2022,07,25,09,01,22.70
2022,07,25,09,02,22.80
2022,07,25,09,03,22.80
2022,07,25,09,04,22.80
2022,07,25,09,05,22.80
2022,07,25,09,06,22.80
2022,07,25,09,07,22.70
2022,07,25,09,08,22.70
2022,07,25,09,09,22.70
2022,07,25,09,10,22.70
2022,07,25,09,11,22.70
2022,07,25,09,12,22.70
2022,07,25,09,13,22.70
2022,07,25,09,14,22.60
2022,07,25,09,15,22.60
2022,07,25,09,16,22.50
2022,07,25,09,17,22.40
2022,07,25,09,18,22.40
2022,07,25,09,19,22.30
2022,07,25,09,20,22.30
2022,07,25,09,21,22.30
2022,07,25,09,22,22.30
2022,07,25,09,23,22.30
2022,07,25,09,24,22.30
2022,07,25,09,25,22.40
2022,07,25,09,26,22.40
2022,07,25,09,27,22.50
2022,07,25,09,28,22.50
2022,07,25,09,29,22.50
2022,07,25,09,30,22.60
2022,07,25,09,31,22.60
2022,07,25,09,32,22.70
2022,07,25,09,33,22.70
2022,07,25,09,34,22.70
2022,07,25,09,35,22.70
2022,07,25,09,36,22.70
2022,07,25,09,37,22.70
2022,07,25,09,38,22.70
2022,07,25,09,39,22.60
2022,07,25,09,40,22.60
2022,07,25,09,41,22.60
2022,07,25,09,42,22.70
2022,07,25,09,43,22.70
2022,07,25,09,44,22.80
2022,07,25,09,45,22.90
2022,07,25,09,46,23.00
2022,07,25,09,47,23.10
2022,07,25,09,48,23.10
2022,07,25,09,49,23.20
2022,07,25,09,50,23.40
2022,07,25,09,51,23.40
2022,07,25,09,52,23.40
2022,07,25,09,53,23.50
2022,07,25,09,54,23.40
2022,07,25,09,55,23.40
2022,07,25,09,56,23.40
2022,07,25,09,57,23.30
2022,07,25,09,58,23.30
2022,07,25,09,59,23.30
2022,07,25,10,00,23.40
2022,07,25,10,01,23.40
2022,07,25,10,02,23.40
2022,07,25,10,03,23.40
2022,07,25,10,04,23.40
2022,07,25,10,05,23.50
2022,07,25,10,06,23.50
2022,07,25,10,07,23.50
2022,07,25,10,08,23.40
2022,07,25,10,09,23.40
2022,07,25,10,10,23.30
2022,07,25,10,11,23.30
2022,07,25,10,12,23.30
2022,07,25,10,13,23.30
2022,07,25,10,14,23.30
2022,07,25,10,15,23.30
2022,07,25,10,16,23.30
2022,07,25,10,17,23.30
2022,07,25,10,18,23.20
2022,07,25,10,19,23.10
2022,07,25,10,20,23.10
2022,07,25,10,21,23.00
2022,07,25,10,22,23.00
2022,07,25,10,23,23.00
2022,07,25,10,24,23.00
2022,07,25,10,25,23.10
2022,07,25,10,26,23.10
2022,07,25,10,27,23.10
2022,07,25,10,28,23.10
2022,07,25,10,29,23.10
2022,07,25,10,30,23.20
2022,07,25,10,31,23.20
2022,07,25,10,32,23.30
2022,07,25,10,33,23.40
2022,07,25,10,34,23.50
2022,07,25,10,35,23.50
2022,07,25,10,36,23.50
2022,07,25,10,37,23.50
2022,07,25,10,38,23.60
2022,07,25,10,39,23.60
2022,07,25,10,40,23.70
2022,07,25,10,41,23.80
2022,07,25,10,42,23.80
2022,07,25,10,43,23.70
2022,07,25,10,44,23.80
2022,07,25,10,45,23.90
2022,07,25,10,46,23.90
2022,07,25,10,47,23.90
2022,07,25,10,48,23.90
2022,07,25,10,49,24.00
2022,07,25,10,50,24.10
2022,07,25,10,51,24.10
2022,07,25,10,52,24.20
2022,07,25,10,53,24.30
2022,07,25,10,54,24.40
2022,07,25,10,55,24.40
2022,07,25,10,56,24.40
2022,07,25,10,57,24.40
2022,07,25,10,58,24.40
2022,07,25,10,59,24.40
2022,07,25,11,00,24.30
2022,07,25,11,01,24.20
2022,07,25,11,02,24.10
2022,07,25,11,03,24.20
2022,07,25,11,04,24.20
2022,07,25,11,05,24.20
2022,07,25,11,06,24.20
2022,07,25,11,07,24.20
2022,07,25,11,08,24.20
2022,07,25,11,09,24.20
2022,07,25,11,10,24.10
2022,07,25,11,11,24.10
2022,07,25,11,12,24.10
2022,07,25,11,13,24.10
2022,07,25,11,14,24.10
2022,07,25,11,15,24.00
2022,07,25,11,16,24.00
2022,07,25,11,17,24.00
2022,07,25,11,18,24.00
2022,07,25,11,19,24.10
2022,07,25,11,20,24.10
2022,07,25,11,21,24.10
2022,07,25,11,22,24.10
2022,07,25,11,23,24.10
2022,07,25,11,24,24.00
2022,07,25,11,25,24.00
2022,07,25,11,26,24.10
2022,07,25,11,27,24.10
2022,07,25,11,28,24.20
2022,07,25,11,29,24.20
2022,07,25,11,30,24.10
2022,07,25,11,31,24.00
2022,07,25,11,32,23.90
2022,07,25,11,33,23.80
2022,07,25,11,34,23.80
2022,07,25,11,35,23.70
2022,07,25,11,36,23.70
2022,07,25,11,37,23.60
2022,07,25,11,38,23.60
2022,07,25,11,39,23.60
2022,07,25,11,40,23.60
2022,07,25,11,41,23.60
2022,07,25,11,42,23.60
2022,07,25,11,43,23.60
2022,07,25,11,44,23.60
2022,07,25,11,45,23.70
2022,07,25,11,46,23.70
2022,07,25,11,47,23.70
2022,07,25,11,48,23.80
2022,07,25,11,49,23.90
2022,07,25,11,50,24.00
2022,07,25,11,51,24.10
2022,07,25,11,52,24.20
2022,07,25,11,53,24.30
2022,07,25,11,54,24.40
2022,07,25,11,55,24.40
2022,07,25,11,56,24.40
2022,07,25,11,57,24.50
2022,07,25,11,58,24.50
2022,07,25,11,59,24.60
2022,07,25,12,00,24.60
2022,07,25,12,01,24.60
2022,07,25,12,02,24.60
2022,07,25,12,03,24.50
2022,07,25,12,04,24.50
2022,07,25,12,05,24.40
2022,07,25,12,06,24.50
2022,07,25,12,07,24.50
2022,07,25,12,08,24.60
2022,07,25,12,09,24.60
2022,07,25,12,10,24.70
2022,07,25,12,11,24.90
2022,07,25,12,12,25.00
2022,07,25,12,13,25.10
2022,07,25,12,14,25.20
2022,07,25,12,15,25.20
2022,07,25,12,16,25.20
2022,07,25,12,17,25.20
2022,07,25,12,18,25.10
2022,07,25,12,19,25.10
2022,07,25,12,20,25.10
2022,07,25,12,21,25.10
2022,07,25,12,22,25.20
2022,07,25,12,23,25.20
2022,07,25,12,24,25.20
2022,07,25,12,25,25.10
2022,07,25,12,26,25.00
2022,07,25,12,27,24.90
2022,07,25,12,28,24.90
2022,07,25,12,29,24.90
2022,07,25,12,30,24.90
2022,07,25,12,31,25.00
2022,07,25,12,32,25.10
2022,07,25,12,33,25.20
2022,07,25,12,34,25.20
2022,07,25,12,35,25.30
2022,07,25,12,36,25.30
2022,07,25,12,37,25.30
2022,07,25,12,38,25.30
2022,07,25,12,39,25.40
2022,07,25,12,40,25.40
2022,07,25,12,41,25.40
2022,07,25,12,42,25.40
2022,07,25,12,43,25.30
2022,07,25,12,44,25.40
2022,07,25,12,45,25.40
2022,07,25,12,46,25.40
2022,07,25,12,47,25.40
2022,07,25,12,48,25.50
2022,07,25,12,49,25.50
2022,07,25,12,50,25.60
2022,07,25,12,51,25.60
2022,07,25,12,52,25.60
2022,07,25,12,53,25.50
2022,07,25,12,54,25.50
2022,07,25,12,55,25.40
2022,07,25,12,56,25.40
2022,07,25,12,57,25.30
2022,07,25,12,58,25.20
2022,07,25,12,59,25.00
2022,07,25,13,00,24.90
2022,07,25,13,01,24.80
2022,07,25,13,02,24.80
2022,07,25,13,03,24.80
2022,07,25,13,04,24.80
2022,07,25,13,05,24.70
2022,07,25,13,06,24.60
2022,07,25,13,07,24.40
2022,07,25,13,08,24.40
2022,07,25,13,09,24.40
2022,07,25,13,10,24.40
2022,07,25,13,11,24.50
2022,07,25,13,12,24.60
2022,07,25,13,13,24.50
2022,07,25,13,14,24.50
2022,07,25,13,15,24.50
2022,07,25,13,16,24.40
2022,07,25,13,17,24.40
2022,07,25,13,18,24.30
2022,07,25,13,19,24.30
2022,07,25,13,20,24.40
2022,07,25,13,21,24.50
2022,07,25,13,22,24.60
2022,07,25,13,23,24.80
2022,07,25,13,24,24.80
2022,07,25,13,25,24.80
2022,07,25,13,26,24.80
2022,07,25,13,27,24.70
2022,07,25,13,28,24.60
2022,07,25,13,29,24.60
2022,07,25,13,30,24.60
2022,07,25,13,31,24.60
2022,07,25,13,32,24.60
2022,07,25,13,33,24.60
2022,07,25,13,34,24.60
2022,07,25,13,35,24.60
2022,07,25,13,36,24.70
2022,07,25,13,37,24.70
2022,07,25,13,38,24.80
2022,07,25,13,39,24.80
2022,07,25,13,40,24.80
2022,07,25,13,41,24.90
2022,07,25,13,42,25.00
2022,07,25,13,43,25.20
2022,07,25,13,44,25.30
2022,07,25,13,45,25.40
2022,07,25,13,46,25.50
2022,07,25,13,47,25.50
2022,07,25,13,48,25.50
2022,07,25,13,49,25.50
2022,07,25,13,50,25.50
2022,07,25,13,51,25.50
2022,07,25,13,52,25.40
2022,07,25,13,53,25.40
2022,07,25,13,54,25.60
2022,07,25,13,55,25.70
2022,07,25,13,56,25.70
2022,07,25,13,57,25.70
2022,07,25,13,58,25.70
2022,07,25,13,59,25.70
2022,07,25,14,00,25.60
2022,07,25,14,01,25.60
2022,07,25,14,02,25.50
2022,07,25,14,03,25.50
2022,07,25,14,04,25.50
2022,07,25,14,05,25.60
2022,07,25,14,06,25.60
2022,07,25,14,07,25.70
2022,07,25,14,08,25.70
2022,07,25,14,09,25.70
2022,07,25,14,10,25.70
2022,07,25,14,11,25.80
2022,07,25,14,12,26.00
2022,07,25,14,13,26.00
2022,07,25,14,14,26.10
2022,07,25,14,15,26.20
2022,07,25,14,16,26.20
2022,07,25,14,17,26.10
2022,07,25,14,18,26.10
2022,07,25,14,19,26.00
2022,07,25,14,20,26.00
2022,07,25,14,21,26.00
2022,07,25,14,22,26.00
2022,07,25,14,23,26.20
2022,07,25,14,24,26.20
2022,07,25,14,25,26.10
2022,07,25,14,26,26.10
2022,07,25,14,27,26.20
2022,07,25,14,28,26.30
2022,07,25,14,29,26.40
2022,07,25,14,30,26.50
2022,07,25,14,31,26.60
2022,07,25,14,32,26.70
2022,07,25,14,33,26.80
2022,07,25,14,34,26.90
2022,07,25,14,35,26.90
2022,07,25,14,36,26.90
2022,07,25,14,37,26.90
2022,07,25,14,38,26.90
2022,07,25,14,39,27.00
2022,07,25,14,40,27.00
2022,07,25,14,41,27.10
2022,07,25,14,42,27.00
2022,07,25,14,43,26.80
2022,07,25,14,44,26.70
2022,07,25,14,45,26.50
2022,07,25,14,46,26.30
2022,07,25,14,47,26.20
2022,07,25,14,48,26.20
2022,07,25,14,49,26.30
2022,07,25,14,50,26.40
2022,07,25,14,51,26.40
2022,07,25,14,52,26.50
2022,07,25,14,53,26.50
2022,07,25,14,54,26.40
2022,07,25,14,55,26.30
2022,07,25,14,56,26.30
2022,07,25,14,57,26.30
2022,07,25,14,58,26.20
2022,07,25,14,59,26.20
2022,07,25,15,00,26.20
2022,07,25,15,01,26.20
2022,07,25,15,02,26.20
2022,07,25,15,03,26.30
2022,07,25,15,04,26.40
2022,07,25,15,05,26.40
2022,07,25,15,06,26.50
2022,07,25,15,07,26.50
2022,07,25,15,08,26.50
2022,07,25,15,09,26.40
2022,07,25,15,10,26.40
2022,07,25,15,11,26.30
2022,07,25,15,12,26.20
2022,07,25,15,13,26.20
2022,07,25,15,14,26.20
2022,07,25,15,15,26.30
2022,07,25,15,16,26.30
2022,07,25,15,17,26.20
2022,07,25,15,18,26.20
2022,07,25,15,19,26.30
2022,07,25,15,20,26.30
2022,07,25,15,21,26.40
2022,07,25,15,22,26.50
2022,07,25,15,23,26.60
2022,07,25,15,24,26.70
2022,07,25,15,25,26.60
2022,07,25,15,26,26.60
2022,07,25,15,27,26.60
2022,07,25,15,28,26.70
2022,07,25,15,29,26.80
2022,07,25,15,30,26.90
2022,07,25,15,31,27.10
2022,07,25,15,32,27.30
2022,07,25,15,33,27.40
2022,07,25,15,34,27.50
2022,07,25,15,35,27.60
2022,07,25,15,36,27.60
2022,07,25,15,37,27.50
2022,07,25,15,38,27.40
2022,07,25,15,39,27.30
2022,07,25,15,40,27.10
2022,07,25,15,41,26.80
2022,07,25,15,42,26.60
2022,07,25,15,43,26.50
2022,07,25,15,44,26.40
2022,07,25,15,45,26.40
2022,07,25,15,46,26.40
2022,07,25,15,47,26.50
2022,07,25,15,48,26.50
2022,07,25,15,49,26.50
2022,07,25,15,50,26.40
2022,07,25,15,51,26.40
2022,07,25,15,52,26.40
2022,07,25,15,53,26.40
2022,07,25,15,54,26.50
2022,07,25,15,55,26.50
2022,07,25,15,56,26.60
2022,07,25,15,57,26.60
2022,07,25,15,58,26.60
2022,07,25,15,59,26.60
2022,07,25,16,00,26.70
2022,07,25,16,01,26.80
2022,07,25,16,02,26.90
2022,07,25,16,03,27.00
2022,07,25,16,04,27.10
2022,07,25,16,05,27.20
2022,07,25,16,06,27.30
2022,07,25,16,07,27.40
2022,07,25,16,08,27.50
2022,07,25,16,09,27.60
2022,07,25,16,10,27.60
2022,07,25,16,11,27.60
2022,07,25,16,12,27.60
2022,07,25,16,13,27.60
2022,07,25,16,14,27.60
2022,07,25,16,15,27.70
2022,07,25,16,16,27.80
2022,07,25,16,17,27.80
2022,07,25,16,18,27.80
2022,07,25,16,19,27.70
2022,07,25,16,20,27.60
2022,07,25,16,21,27.50
2022,07,25,16,22,27.40
2022,07,25,16,23,27.40
2022,07,25,16,24,27.30
2022,07,25,16,25,27.40
2022,07,25,16,26,27.40
2022,07,25,16,27,27.40
2022,07,25,16,28,27.60
2022,07,25,16,29,27.60
2022,07,25,16,30,27.80
2022,07,25,16,31,27.80
2022,07,25,16,32,27.80
2022,07,25,16,33,27.90
2022,07,25,16,34,27.90
2022,07,25,16,35,28.00
2022,07,25,16,36,28.00
2022,07,25,16,37,28.10
2022,07,25,16,38,28.10
2022,07,25,16,39,28.20
2022,07,25,16,40,28.20
2022,07,25,16,41,28.20
2022,07,25,16,42,28.20
2022,07,25,16,43,28.20
2022,07,25,16,44,28.20
2022,07,25,16,45,28.20
2022,07,25,16,46,28.20
2022,07,25,16,47,28.30
2022,07,25,16,48,28.30
2022,07,25,16,49,28.30
2022,07,25,16,50,28.20
2022,07,25,16,51,28.10
2022,07,25,16,52,28.00
2022,07,25,16,53,27.90
2022,07,25,16,54,27.80
2022,07,25,16,55,27.80
2022,07,25,16,56,27.80
2022,07,25,16,57,27.70
2022,07,25,16,58,27.70
2022,07,25,16,59,27.60
2022,07,25,17,00,27.50
2022,07,25,17,01,27.50
2022,07,25,17,02,27.40
2022,07,25,17,03,27.40
2022,07,25,17,04,27.40
2022,07,25,17,05,27.40
2022,07,25,17,06,27.40
2022,07,25,17,07,27.40
2022,07,25,17,08,27.50
2022,07,25,17,09,27.70
2022,07,25,17,10,27.80
2022,07,25,17,11,27.80
2022,07,25,17,12,27.80
2022,07,25,17,13,27.70
2022,07,25,17,14,27.60
2022,07,25,17,15,27.60
2022,07,25,17,16,27.70
2022,07,25,17,17,27.70
2022,07,25,17,18,27.80
2022,07,25,17,19,27.90
2022,07,25,17,20,28.10
2022,07,25,17,21,28.20
2022,07,25,17,22,28.40